This is the latest recevied weather packets stored in our database for station/object ON5MM-5. If no packets are shown the sender has not sent any weather packets the latest 10 day(s).
| Time | Temp. | Humidity | Pressure | Rain* | Wind** | Luminosity | Snow |
|---|---|---|---|---|---|---|---|
| 1778150703 | 13.33° C | 65% | 1017.8 hPa | 0 mm | 0 m/s | - | - |
| 1778150402 | 13.33° C | 65% | 1017.8 hPa | 0 mm | 0.45 m/s, ° | - | - |
| 1778150102 | 12.78° C | 64% | 1017.9 hPa | 0 mm | 0.45 m/s, ° | - | - |
| 1778149803 | 12.78° C | 67% | 1017.9 hPa | 0 mm | 0 m/s | - | - |
| 1778149502 | 12.78° C | 68% | 1017.9 hPa | 0 mm | 0.45 m/s, ° | - | - |
| 1778149203 | 12.22° C | 71% | 1017.9 hPa | 0 mm | 0 m/s | - | - |
| 1778148903 | 11.67° C | 71% | 1017.8 hPa | 0 mm | 0.89 m/s, ° | - | - |
| 1778148603 | 12.22° C | 71% | 1017.8 hPa | 0 mm | 1.34 m/s, ° | - | - |
| 1778148302 | 11.67° C | 72% | 1017.7 hPa | 0 mm | 0.89 m/s, ° | - | - |
| 1778148002 | 11.67° C | 73% | 1017.7 hPa | 0 mm | 0.45 m/s, ° | - | - |
| 1778147702 | 11.67° C | 74% | 1017.8 hPa | 0 mm | 0.45 m/s, ° | - | - |
| 1778147403 | 11.11° C | 73% | 1017.7 hPa | 0 mm | 0.89 m/s, ° | - | - |
| 1778147102 | 11.67° C | 75% | 1017.7 hPa | 0 mm | 0.89 m/s, ° | - | - |
| 1778146802 | 11.11° C | 75% | 1017.7 hPa | 0 mm | 1.34 m/s, ° | - | - |
| 1778146502 | 11.11° C | 75% | 1017.6 hPa | 0 mm | 1.34 m/s, ° | - | - |
| 1778146203 | 10.56° C | 76% | 1017.6 hPa | 0 mm | 1.79 m/s, ° | - | - |
| 1778145902 | 10.56° C | 76% | 1017.5 hPa | 0 mm | 2.24 m/s, ° | - | - |
| 1778145602 | 11.11° C | 76% | 1017.5 hPa | 0 mm | 1.79 m/s, ° | - | - |
| 1778145302 | 10.56° C | 77% | 1017.5 hPa | 0 mm | 0.89 m/s, ° | - | - |
| 1778145003 | 10.56° C | 76% | 1017.4 hPa | 0 mm | 1.79 m/s, ° | - | - |
| 1778144702 | 10.56° C | 77% | 1017.4 hPa | 0 mm | 1.34 m/s, ° | - | - |
| 1778144402 | 10.56° C | 76% | 1017.3 hPa | 0 mm | 1.79 m/s, ° | - | - |
| 1778144102 | 10.56° C | 76% | 1017.3 hPa | 0 mm | 1.79 m/s, ° | - | - |
| 1778143802 | 10.56° C | 78% | 1017.3 hPa | 0 mm | 0.89 m/s, ° | - | - |
| 1778143503 | 10.56° C | 78% | 1017.2 hPa | 0 mm | 1.34 m/s, ° | - | - |
* Rain latest hour (hover to see other rain measurements)
** Current wind speed in m/s (hover to see current wind gust speed)